Latest Weather Observations for Ulladulla

IDN60901

Issued at 8:35 am EDT Wednesday 22 October 2014 (issued every 10 minutes, with the page automatically refreshed every 10 minutes)

About weather observations | Map of Canberra area stations | Latest observations for Canberra area | Other Formats
Station Details ID: 069138 Name: ULLADULLA AWS Lat: -35.36 Lon: 150.48 Height: 35.7 m
Data from the previous 72 hours. | See also: Recent months at Ulladulla
Date/Time
EDT
Tmp

°C
App
Tmp
°C
Dew
Point
°C
Rel
Hum
%
Delta-T

°C
Wind Press
QNH
hPa
Press
MSL
hPa
Rain
since
9 am
mm
Dir
 
Spd
km/h
Gust
km/h
Spd
kts
Gust
kts
22/08:30am 15.9 12.3 8.4 61 3.8 N 17 24 9 13 1026.1 1026.0 0.0
22/08:00am 15.5 12.4 9.0 65 3.3 N 15 20 8 11 1026.4 1026.3 0.0
22/07:30am 15.0 12.2 8.5 65 3.3 N 13 26 7 14 1026.5 1026.4 0.0
22/07:00am 13.9 11.4 8.1 68 2.9 N 11 20 6 11 1026.6 1026.5 0.0
22/06:30am 13.9 11.5 8.5 70 2.7 N 11 20 6 11 1026.6 1026.5 0.0
22/06:00am 14.3 12.3 8.7 69 2.8 N 9 15 5 8 1026.6 1026.5 0.0
22/05:30am 14.8 12.3 8.1 64 3.4 N 11 19 6 10 1026.5 1026.4 0.0
22/05:00am 15.0 11.6 7.8 62 3.6 N 15 24 8 13 1026.5 1026.4 0.0
22/04:30am 15.2 12.3 8.0 62 3.6 N 13 24 7 13 1026.7 1026.6 0.0
22/04:00am 14.7 13.1 10.1 74 2.4 N 9 15 5 8 1027.0 1026.9 0.0
22/03:30am 14.2 13.1 10.0 76 2.2 NNW 6 7 3 4 1027.4 1027.3 0.0
22/03:00am 14.5 13.4 10.1 75 2.3 NNW 6 9 3 5 1027.7 1027.6 0.0
22/02:30am 14.7 13.7 10.3 75 2.3 N 6 9 3 5 1028.1 1028.0 0.0
22/02:00am 14.5 13.4 10.1 75 2.3 N 6 9 3 5 1028.6 1028.5 0.0
22/01:30am 14.5 13.4 9.9 74 2.4 NNW 6 7 3 4 1029.0 1028.9 0.0
22/01:00am 14.4 13.6 9.6 73 2.5 N 4 7 2 4 1029.5 1029.4 0.0
22/12:30am 14.5 14.1 9.7 73 2.5 NNW 2 4 1 2 1029.9 1029.8 0.0
22/12:00am 14.7 13.9 9.7 72 2.6 NNW 4 7 2 4 1030.5 1030.4 0.0
 
Date/Time
EDT
Tmp

°C
App
Tmp
°C
Dew
Point
°C
Rel
Hum
%
Delta-T

°C
Wind Press
QNH
hPa
Press
MSL
hPa
Rain
since
9 am
mm
Dir
 
Spd
km/h
Gust
km/h
Spd
kts
Gust
kts
21/11:30pm 14.8 14.0 9.6 71 2.7 NW 4 7 2 4 1030.6 1030.5 0.0
21/11:00pm 15.2 14.0 9.6 69 2.9 NNW 6 9 3 5 1030.7 1030.6 0.0
21/10:30pm 15.7 14.4 9.8 68 3.1 N 7 15 4 8 1030.9 1030.8 0.0
21/10:00pm 16.0 13.5 9.7 66 3.3 N 13 20 7 11 1030.9 1030.8 0.0
21/09:30pm 16.0 14.2 9.4 65 3.4 N 9 19 5 10 1031.0 1030.9 0.0
21/09:00pm 16.0 14.1 9.2 64 3.5 NNE 9 15 5 8 1031.0 1030.9 0.0
21/08:30pm 16.1 14.3 9.3 64 3.5 NE 9 19 5 10 1031.0 1030.9 0.0
21/08:00pm 16.0 14.3 9.7 66 3.3 NNE 9 17 5 9 1030.6 1030.5 0.0
21/07:30pm 16.0 14.7 9.2 64 3.5 N 6 11 3 6 1030.4 1030.3 0.0
21/07:00pm 16.0 14.5 9.0 63 3.6 N 7 15 4 8 1030.2 1030.1 0.0
21/06:30pm 16.1 14.5 8.8 62 3.7 N 7 20 4 11 1030.1 1030.0 0.0
21/06:00pm 16.3 14.6 8.5 60 4.0 N 7 19 4 10 1030.0 1029.9 0.0
21/05:30pm 16.4 14.7 8.4 59 4.1 NNE 7 19 4 10 1030.1 1030.0 0.0
21/05:00pm 16.4 14.4 8.6 60 4.0 NNE 9 19 5 10 1030.2 1030.1 0.0
21/04:30pm 16.4 13.8 9.3 63 3.7 NE 13 22 7 12 1030.2 1030.1 0.0
21/04:00pm 16.2 13.4 8.7 61 3.8 NNE 13 20 7 11 1030.4 1030.3 0.0
21/03:30pm 16.1 13.8 9.1 63 3.6 NNE 11 15 6 8 1030.7 1030.6 0.0
21/03:00pm 16.6 14.4 9.3 62 3.8 NE 11 19 6 10 1031.1 1031.0 0.0
21/02:30pm 16.6 14.8 9.5 63 3.7 NNE 9 13 5 7 1031.3 1031.2 0.0
21/02:00pm 17.3 16.1 10.2 63 3.7 ENE 7 9 4 5 1031.7 1031.6 0.0
21/01:30pm 17.2 16.3 9.1 59 4.2 N 4 7 2 4 1032.2 1032.1 0.0
21/01:00pm 16.3 15.3 8.8 61 3.8 N 4 7 2 4 1032.5 1032.4 0.0
21/12:30pm 16.2 14.8 9.6 65 3.4 N 7 13 4 7 1032.9 1032.8 0.0
21/12:00pm 16.6 15.7 10.5 67 3.2 S 6 7 3 4 1033.0 1032.9 0.0
21/11:30am 16.4 15.4 11.1 71 2.8 S 7 9 4 5 1033.4 1033.3 0.0
21/11:00am 16.1 15.2 10.8 71 2.8 S 6 9 3 5 1033.5 1033.4 0.0
21/10:30am 16.0 15.4 11.8 76 2.3 S 6 11 3 6 1033.5 1033.4 0.0
21/10:00am 15.3 14.5 11.1 76 2.2 S 6 9 3 5 1033.5 1033.4 0.0
21/09:30am 14.8 13.4 11.0 78 2.0 SSW 9 15 5 8 1033.4 1033.3 0.0
21/09:00am 14.2 13.1 10.8 80 1.8 SSW 7 11 4 6 1033.2 1033.1 2.6
21/08:30am 13.8 13.0 11.0 83 1.5 SSW 6 9 3 5 1033.0 1032.9 2.6
21/08:00am 13.1 12.0 10.5 84 1.3 WSW 7 9 4 5 1032.8 1032.7 2.6
21/07:30am 12.7 11.5 10.4 86 1.2 SSW 7 11 4 6 1032.5 1032.4 2.6
21/07:00am 12.4 11.3 10.1 86 1.2 SW 6 9 3 5 1032.2 1032.1 2.6
21/06:30am 12.2 11.1 10.1 87 1.1 SSW 6 9 3 5 1032.1 1032.0 2.6
21/06:00am 12.1 10.9 10.2 88 1.0 SW 7 11 4 6 1031.9 1031.8 2.6
21/05:30am 12.1 10.9 10.3 89 0.9 WSW 7 11 4 6 1031.8 1031.7 2.6
21/05:00am 12.0 10.9 10.6 91 0.7 WSW 7 13 4 7 1031.8 1031.7 2.6
21/04:30am 12.0 10.5 10.7 92 0.7 WSW 9 13 5 7 1031.9 1031.8 2.6
21/04:00am 11.9 10.5 10.8 93 0.6 SSW 9 11 5 6 1032.0 1031.9 2.6
21/03:30am 11.9 11.0 10.8 93 0.6 SW 6 9 3 5 1032.0 1031.9 2.6
21/03:00am 12.1 11.3 11.0 93 0.6 W 6 7 3 4 1032.2 1032.1 2.6
21/02:30am 12.0 11.2 11.1 94 0.5 WSW 6 9 3 5 1032.3 1032.2 2.6
21/02:00am 12.1 11.2 11.2 94 0.5 WSW 7 11 4 6 1032.4 1032.3 2.6
21/01:30am 12.1 11.3 11.2 94 0.5 SW 6 11 3 6 1032.8 1032.7 2.6
21/01:00am 12.2 11.2 11.1 93 0.6 WSW 7 11 4 6 1032.8 1032.7 2.6
21/12:30am 12.2 11.4 10.9 92 0.7 SW 6 11 3 6 1033.1 1033.0 2.6
21/12:00am 12.4 11.6 11.1 92 0.7 SW 6 9 3 5 1033.1 1033.0 2.6
 
Date/Time
EDT
Tmp

°C
App
Tmp
°C
Dew
Point
°C
Rel
Hum
%
Delta-T

°C
Wind Press
QNH
hPa
Press
MSL
hPa
Rain
since
9 am
mm
Dir
 
Spd
km/h
Gust
km/h
Spd
kts
Gust
kts
20/11:30pm 12.5 11.9 11.6 94 0.5 W 6 9 3 5 1033.1 1033.0 2.6
20/11:00pm 12.6 11.7 11.5 93 0.6 S 7 11 4 6 1033.2 1033.1 2.6
20/10:30pm 12.4 11.5 11.5 94 0.5 SW 7 11 4 6 1033.1 1033.0 2.6
20/10:00pm 12.4 11.6 11.6 95 0.4 SW 7 9 4 5 1033.2 1033.1 2.6
20/09:30pm 12.4 11.6 11.6 95 0.4 SW 7 11 4 6 1033.1 1033.0 2.6
20/09:00pm 12.5 12.0 11.9 96 0.3 WSW 6 9 3 5 1033.0 1032.9 2.6
20/08:30pm 12.6 12.0 11.8 95 0.4 W 6 9 3 5 1032.8 1032.7 2.6
20/08:00pm 12.7 12.5 11.9 95 0.4 WNW 4 7 2 4 1032.7 1032.6 2.6
20/07:30pm 12.7 11.9 11.8 94 0.5 W 7 11 4 6 1032.4 1032.3 2.4
20/07:00pm 12.9 12.1 11.1 89 0.9 W 6 11 3 6 1032.1 1032.0 2.2
20/06:30pm 13.2 12.8 11.1 87 1.1 W 4 9 2 5 1031.9 1031.8 1.8
20/06:00pm 13.1 12.0 10.8 86 1.2 S 7 15 4 8 1031.6 1031.5 1.8
20/05:30pm 13.5 12.0 10.7 83 1.5 S 9 17 5 9 1031.6 1031.5 1.0
20/05:00pm 14.9 13.6 10.1 73 2.5 ESE 7 15 4 8 1031.5 1031.4 1.0
20/04:30pm 15.3 12.4 9.7 69 2.9 SSE 15 24 8 13 1031.2 1031.1 1.0
20/04:00pm 15.3 11.9 9.2 67 3.1 S 17 28 9 15 1031.2 1031.1 1.0
20/03:30pm 15.4 11.4 9.1 66 3.2 S 20 30 11 16 1031.2 1031.1 1.0
20/03:00pm 15.1 11.3 9.7 70 2.8 S 20 33 11 18 1031.4 1031.3 1.0
20/02:30pm 15.2 11.6 9.8 70 2.8 S 19 28 10 15 1031.4 1031.3 1.0
20/02:00pm 14.9 11.4 10.9 77 2.1 SSE 20 33 11 18 1031.5 1031.4 1.0
20/01:30pm 14.2 11.4 11.2 82 1.6 S 17 32 9 17 1031.6 1031.5 1.0
20/01:00pm 14.3 11.6 11.8 85 1.3 S 17 33 9 18 1031.6 1031.5 1.0
20/12:30pm 13.3 9.1 11.2 87 1.1 S 24 39 13 21 1031.9 1031.8 0.8
20/12:00pm 15.0 10.7 12.1 83 1.6 S 26 35 14 19 1031.7 1031.6 0.0
20/11:30am 14.9 9.2 11.9 82 1.6 S 33 50 18 27 1031.8 1031.7 0.0
20/11:00am 14.7 10.4 12.0 84 1.5 S 26 39 14 21 1031.8 1031.7 0.0
20/10:30am 15.4 9.9 11.8 79 2.0 S 32 44 17 24 1031.5 1031.4 0.0
20/10:00am 15.7 8.5 11.9 78 2.0 S 41 52 22 28 1031.3 1031.2 0.0
20/09:30am 15.5 7.7 11.9 79 2.0 S 44 52 24 28 1030.7 1030.6 0.0
20/09:00am 15.6 7.1 10.8 73 2.5 S 46 61 25 33 1030.1 1030.0 0.0
20/08:30am 15.8 7.7 10.1 69 3.0 S 43 59 23 32 1029.6 1029.5 0.0
20/08:00am 16.0 6.6 10.3 69 3.0 S 50 63 27 34 1028.9 1028.8 0.0
20/07:30am 16.0 8.8 10.7 71 2.8 S 39 61 21 33 1028.0 1027.9 0.0
20/07:27am 16.0 8.8 10.7 71 2.8 S 39 61 21 33 1027.9 1027.8 0.0
20/07:00am 16.5 9.0 11.0 70 2.9 S 41 57 22 31 1027.4 1027.3 0.0
20/06:55am 16.5 9.7 10.8 69 3.0 S 37 57 20 31 1027.3 1027.2 0.0
20/06:30am 16.6 10.3 10.9 69 3.1 S 35 50 19 27 1027.0 1026.9 0.0
20/06:00am 16.6 11.1 11.7 73 2.7 S 32 44 17 24 1026.5 1026.4 0.0
20/05:30am 16.7 11.2 11.8 73 2.7 S 32 46 17 25 1026.0 1025.9 0.0
20/05:00am 16.7 12.0 12.0 74 2.6 S 28 39 15 21 1025.4 1025.4 0.0
20/04:30am 17.0 10.8 12.5 75 2.5 S 37 46 20 25 1024.9 1024.9 0.0
20/04:00am 17.5 12.9 13.6 78 2.2 S 30 41 16 22 1024.4 1024.4 0.0
20/03:30am 17.5 12.6 13.8 79 2.1 S 32 44 17 24 1023.5 1023.5 0.0
20/03:00am 18.3 14.3 14.0 76 2.5 S 28 37 15 20 1022.2 1022.2 0.0
20/02:30am 18.5 16.1 12.5 68 3.3 SSW 17 28 9 15 1021.2 1021.2 0.0
20/02:00am 19.8 19.2 10.5 55 5.0 NW 4 4 2 2 1020.3 1020.3 0.0
20/01:30am 19.4 20.0 13.1 67 3.6 NW 2 4 1 2 1020.3 1020.3 0.0
20/01:00am 18.7 18.9 13.1 70 3.2 NW 4 4 2 2 1020.4 1020.4 0.0
20/12:30am 18.1 19.0 15.0 82 1.8 N 4 6 2 3 1020.4 1020.4 0.0
20/12:00am 17.7 18.2 15.0 84 1.6 N 6 9 3 5 1020.6 1020.6 0.0
 
Date/Time
EDT
Tmp

°C
App
Tmp
°C
Dew
Point
°C
Rel
Hum
%
Delta-T

°C
Wind Press
QNH
hPa
Press
MSL
hPa
Rain
since
9 am
mm
Dir
 
Spd
km/h
Gust
km/h
Spd
kts
Gust
kts
19/11:30pm 18.0 18.0 15.3 84 1.6 NNE 9 15 5 8 1020.4 1020.4 0.0
19/11:00pm 18.1 18.1 15.2 83 1.7 NNE 9 13 5 7 1020.5 1020.5 0.0
19/10:30pm 18.3 17.9 15.2 82 1.8 N 11 15 6 8 1020.4 1020.4 0.0
19/10:00pm 18.5 18.0 15.0 80 2.0 NNE 11 17 6 9 1020.6 1020.6 0.0
19/09:30pm 19.2 18.6 14.7 75 2.6 N 11 17 6 9 1020.7 1020.7 0.0
19/09:00pm 18.9 17.7 15.0 78 2.3 N 15 22 8 12 1020.6 1020.6 0.0
19/08:30pm 19.2 18.8 15.1 77 2.4 N 11 17 6 9 1020.1 1020.1 0.0
19/08:00pm 18.7 19.2 15.6 82 1.8 N 7 11 4 6 1020.1 1020.1 0.0
19/07:30pm 18.7 19.4 15.6 82 1.8 NW 6 9 3 5 1019.9 1019.9 0.0
19/07:00pm 19.0 20.0 15.3 79 2.2 WNW 4 9 2 5 1019.6 1019.6 0.0
19/06:30pm 19.4 20.1 15.5 78 2.3 NW 6 13 3 7 1019.5 1019.5 0.0
19/06:00pm 19.9 17.8 15.3 75 2.7 NE 20 30 11 16 1019.3 1019.3 0.0
19/05:30pm 19.9 17.8 15.3 75 2.7 NE 20 28 11 15 1019.5 1019.5 0.0
19/05:00pm 20.1 17.7 15.5 75 2.7 NE 22 30 12 16 1019.5 1019.5 0.0
19/04:30pm 20.5 20.6 15.5 73 3.0 NNE 9 17 5 9 1019.8 1019.8 0.0
19/04:00pm 20.8 20.6 15.8 73 3.0 NNE 11 22 6 12 1020.0 1020.0 0.0
19/03:30pm 20.8 19.8 15.6 72 3.1 NNE 15 28 8 15 1020.2 1020.2 0.0
19/03:00pm 20.6 17.5 14.5 68 3.6 NNE 24 33 13 18 1020.4 1020.4 0.0
19/02:30pm 20.9 20.1 15.2 70 3.4 NNE 13 20 7 11 1020.9 1020.9 0.0
19/02:00pm 20.8 20.2 15.6 72 3.1 NNE 13 20 7 11 1021.3 1021.3 0.0
19/01:30pm 21.3 21.5 15.8 71 3.3 NNE 9 17 5 9 1021.9 1021.9 0.0
19/01:00pm 21.3 20.7 15.6 70 3.4 NE 13 20 7 11 1022.0 1022.0 0.0
19/12:30pm 21.2 21.2 15.1 68 3.6 NE 9 13 5 7 1022.5 1022.5 0.0
19/12:00pm 21.5 20.7 13.9 62 4.4 NNE 11 17 6 9 1022.8 1022.8 0.0
19/11:30am 21.2 20.8 14.1 64 4.1 NNE 9 15 5 8 1023.3 1023.3 0.0
19/11:00am 20.3 20.2 14.0 67 3.6 N 7 13 4 7 1023.7 1023.7 0.0
19/10:30am 19.6 19.1 12.6 64 3.9 N 7 11 4 6 1024.2 1024.2 0.0
19/10:00am 18.2 16.8 11.0 63 3.9 N 9 11 5 6 1024.4 1024.4 0.0
19/09:30am 16.9 15.5 11.0 68 3.2 N 9 13 5 7 1024.7 1024.7 0.0
19/09:00am 15.9 14.6 10.0 68 3.1 NNE 7 11 4 6 1024.8 1024.8 0.0

Latest Capital City Observations: Canberra | Sydney | Melbourne | Brisbane | Adelaide | Perth | Hobart | Darwin

Other Formats:

Comma delimited format used in spreadsheet applications
http://www.bom.gov.au/fwo/IDN60903/IDN60903.94938.axf

JavaScript Object Notation format (JSON) in row-major order
http://www.bom.gov.au/fwo/IDN60903/IDN60903.94938.json